Weather Roundup
Issued by NWS Springfield, MO

Home | Current Version | Previous Version | Text Only | Print | Product List | Glossary On
Versions: 1 2 3 4 5 6 7 8 9 10 11 12 13 14 15 16 17 18 19 20 21 22 23 24 25 26 27 28 29 30 31 32 33 34 35 36 37 38 39 40 41 42 43 44 45 46 47 48 49 50
000
NZUS99 KSGF 301107
HRRSGF

HOURLY WEATHER
NATIONAL WEATHER SERVICE SPRINGFIELD MO
600 AM CDT WED JUL 30 2014

......SGF CWA......

CITY           SKY/WX    TMP DP  RH WIND       PRES   REMARKS
SPRINGFIELD    CLOUDY    68  60  75 CALM      30.09R
JOPLIN         CLOUDY    67  65  93 VRB6      30.09S
WEST PLAINS    PTCLDY    60  56  86 CALM      30.11S
ROLLA          PTCLDY    61  56  83 S5        30.08R
OSAGE BEACH    PTCLDY    57  55  94 CALM      30.09R
BRANSON          N/A     66  63  88 CALM      30.10S

......SURROUNDING SGF CWA......

CITY           SKY/WX    TMP DP  RH WIND       PRES   REMARKS
CHANUTE        CLOUDY    68  63  84 N5        30.08R
PARSONS        CLOUDY    70  61  73 CALM      30.08R
COFFEYVILLE    MOCLDY    67  64  90 CALM      30.06R
EMPORIA        CLOUDY    67  62  84 NE7       30.09S
GROVE OK       CLOUDY    70  70 100 CALM      30.08S
ROGERS AR      CLOUDY    69  65  86 SE3       30.11R
SILOAM SPRINGS MOCLDY    66  57  72 SE6       30.10S
HARRISON AR    MOCLDY    65  64  97 SE6       30.10R
NEAR YELLVILLE PTCLDY    64  59  82 CALM      30.10R

......KANSAS AND MISSOURI......

CITY           SKY/WX    TMP DP  RH WIND       PRES   REMARKS
KANSAS CTY INT CLOUDY    63  59  87 NE7       30.11R
DOWNTOWN KC    CLOUDY    68  59  73 N3        30.09S
COLUMBIA       MOCLDY    62  56  80 CALM      30.09R
SEDALIA        PTCLDY    61  57  87 CALM      30.10R
ST JOSEPH      MOCLDY    60  59  96 N5        30.11S
ST LOUIS       PTCLDY    65  57  75 CALM      30.09R
SPIRIT OF STL  PTCLDY    59  57  93 CALM      30.07R
KIRKSVILLE     PTCLDY    55  54  96 NW3       30.10R
WICHITA        CLOUDY    70  61  73 E3        30.06S
TOPEKA         CLOUDY    68  62  81 N3        30.10S
OLATHE         CLOUDY    69  60  73 CALM      30.09S

......TENNESSEE......

CITY           SKY/WX    TMP DP  RH WIND       PRES   REMARKS
MEMPHIS        PTCLDY    65  56  72 CALM      30.10R
NASHVILLE      PTCLDY    58  55  90 CALM      30.11S

......ARKANSAS.......

CITY           SKY/WX    TMP DP  RH WIND       PRES   REMARKS
FAYETTEVILLE   MOCLDY    64  62  93 CALM      30.10R
FT SMITH       CLOUDY    72  68  87 E6        30.06S
LITTLE ROCK    MOCLDY    69  60  73 CALM      30.11R

......OKLAHOMA.......

CITY           SKY/WX    TMP DP  RH WIND       PRES   REMARKS
TULSA          CLOUDY    73  66  78 SE3       30.03R
PONCA CITY     CLOUDY    72  67  84 CALM      30.05S
MCALESTER      LGT RAIN  73  68  84 VRB5      30.08R
OKLAHOMA CITY  LGT RAIN  70  65  84 S6        30.07S

......IOWA............

CITY           SKY/WX    TMP DP  RH WIND       PRES   REMARKS
DES MOINES     PTCLDY    59  54  83 NW3       30.10R
QUAD CITIES    CLEAR     56  53  90 CALM      30.05R

......ILLINOIS........

CITY           SKY/WX    TMP DP  RH WIND       PRES   REMARKS
QUINCY         CLEAR     59  57  93 CALM      30.08R
CHICAGO        MOCLDY    62  54  74 W6        30.02R



USA.gov is the U.S. government's official web portal to all federal, state and local government web resources and services.